Regional Weather Roundup
Issued by NWS

Home | Current Version | Previous Version | Text Only | Print | Product List | Glossary On
Versions: 1 2 3 4 5 6 7 8 9 10 11 12 13 14 15 16 17 18 19 20 21 22 23 24 25 26 27 28 29 30 31 32 33 34 35 36 37 38 39 40 41 42 43 44 45 46 47 48 49 50
000
ASUS43 KMKX 202000
RWRWI

WISCONSIN REGIONAL WEATHER ROUNDUP
NATIONAL WEATHER SERVICE MILWAUKEE/SULLIVAN WI
200 PM CST TUE FEB 20 2018

NOTE: "FAIR" INDICATES FEW OR NO CLOUDS BELOW 12,000 FEET WITH NO
SIGNIFICANT WEATHER AND/OR OBSTRUCTIONS TO VISIBILITY.

WIZ001-002-006>008-014>016-023>028-202100-
NORTHWEST WISCONSIN

CITY           SKY/WX    TMP DP  RH WIND       PRES   REMARKS
SUPERIOR ARPT  LGT SNOW  14   8  77 SW3       29.94S
ASHLAND        CLOUDY    21  18  88 NW8       29.89R WCI  11
HAYWARD        CLOUDY    20  17  88 VRB7      29.88R WCI  11
SIREN          FLURRIES  16  11  81 NW6       29.93S WCI   8
CUMBERLAND     CLOUDY    19  16  86 W8        29.89R WCI   9
RICE LAKE      CLOUDY    23  20  88 W13       29.91R WCI  11
CHETEK         CLOUDY    23  19  86 W7        29.89R WCI  15
LADYSMITH      CLOUDY    25  22  87 SW8       29.87R WCI  16
EAU CLAIRE     CLOUDY    23  18  81 W15G24    29.90R WCI  10
MENOMONIE      CLOUDY    24  19  80 W12       29.93R WCI  13
NEW RICHMOND   FLURRIES  19  15  82 W9        29.93S WCI   9
OSCEOLA        CLOUDY    19  14  80 W8        29.97S WCI   9
$$

WIZ003>005-009-010-017-018-202100-
NORTH CENTRAL WISCONSIN

CITY           SKY/WX    TMP DP  RH WIND       PRES   REMARKS
MANITOWISH WTR CLOUDY    23  23 100 W6        29.77S WCI  16
ARBOR VITAE    CLOUDY    27  25  95 W5        29.76F WCI  21
WOODRUFF       CLOUDY    27  25  95 W5        29.76F WCI  21
RHINELANDER    CLOUDY    28  26  92 W10       29.76F WCI  19
EAGLE RIVER    CLOUDY    26  25  94 W7        29.75F WCI  19
LAND O LAKES   CLOUDY    27  24  90 W5        29.77S WCI  21
PHILLIPS       CLOUDY    23  22  96 W3        29.81R
TOMAHAWK       CLOUDY    27  24  91 W6        29.79S WCI  20
MEDFORD        CLOUDY    25  22  91 W10       29.81S WCI  14
MERRILL        CLOUDY    29  27  91 W10       29.80S WCI  20
$$

WIZ029-030-035-036-043>047-202100-
CENTRAL WISCONSIN

CITY           SKY/WX    TMP DP  RH WIND       PRES   REMARKS
WAUSAU         CLOUDY    29  26  89 W12       29.79S WCI  19
MOSINEE        CLOUDY    28  28 100 W12       29.82S WCI  18
MARSHFIELD     CLOUDY    27  24  89 W15       29.82R WCI  15
STEVENS POINT  CLOUDY    30  30  99 W7        29.82F WCI  23
WAUPACA        CLOUDY    35  33  92 W10       29.83F WCI  27
WAUTOMA        CLOUDY    33  32  96 W12       29.85R WCI  24
WISC RAPIDS    CLOUDY    31  27  85 W9        29.84F WCI  23
CAMP DOUGLAS   CLOUDY    32  32 100 W10       29.87R WCI  24
$$

WIZ011>013-019>022-031-037>040-048>050-202100-
NORTHEAST WISCONSIN

CITY           SKY/WX    TMP DP  RH WIND       PRES   REMARKS
ANTIGO         CLOUDY    30  30  99 W9        29.78F FOG     WCI  22
SHAWANO        CLOUDY    35  33  93 CALM      29.81R FOG
OCONTO         CLOUDY    32  32  99 SW3       29.82R
STURGEON BAY   CLOUDY    34  32  92 W9        29.83R WCI  27
GREEN BAY      LGT RAIN  36  32  85 SW9       29.83R WCI  29
MANITOWOC      LGT RAIN  38  36  92 W13G18    29.83S WCI  30
APPLETON       CLOUDY    34  34 100 W9        29.82R WCI  26
CLINTONVILLE   CLOUDY    33  32  94 W7        29.82F WCI  27
OSHKOSH        LGT RAIN  36  34  92 VRB6      29.82F FOG     WCI  31
$$

WIZ032>034-041-042-053>061-202100-
SOUTHWEST WISCONSIN

CITY           SKY/WX    TMP DP  RH WIND       PRES   REMARKS
LA CROSSE      CLOUDY    28  23  81 NW14      29.94R WCI  17
SPARTA         CLOUDY    28  26  93 W7        29.90R WCI  20
VIROQUA        CLOUDY    28  28 100 W8        29.87R WCI  20
BOSCOBEL       CLOUDY    34  28  79 SW6       29.92R WCI  29
PRAIRIE DU CHI CLOUDY    31  26  80 W14       29.94R WCI  21
PLATTEVILLE    CLOUDY    32  32 100 W13       29.90S WCI  22
$$

WIZ056-057-062-063-064-067-068-202100-
SOUTH CENTRAL WISCONSIN

CITY           SKY/WX    TMP DP  RH WIND       PRES   REMARKS
REEDSBURG      CLOUDY    33  33 100 W7        29.87R WCI  27
BARABOO/DELLS  CLOUDY    33  33  98 W12       29.85R WCI  25
LONE ROCK      CLOUDY    34  32  92 W10       29.91R WCI  26
MINERAL POINT  CLOUDY    34  34 100 W15       29.87R WCI  24
MADISON        CLOUDY    36  34  92 W7        29.86S WCI  30
MIDDLETON      CLOUDY    37  37  99 W8        29.87R WCI  31
WATERTOWN      RAIN      38  38 100 W5        29.85S WCI  35
MONROE         RAIN      34  34 100 W10       29.85F WCI  26
JANESVILLE     LGT RAIN  37  37 100 W3        29.86R
$$

WIZ051-052-058>065-066-070>072-202100-
SOUTHEAST WISCONSIN

CITY           SKY/WX    TMP DP  RH WIND       PRES   REMARKS
MILWAUKEE      LGT RAIN  52  50  93 W14       29.80F
WAUKESHA       LGT RAIN  43  43 100 W7        29.84R
MILWAUKEE/TIMM RAIN      46  43  87 W9        29.82S
RACINE         LGT RAIN  52  51  97 W12       29.81F
BURLINGTON     LGT RAIN  48  47  94 W12       29.83F
KENOSHA        LGT RAIN  52  50  93 W10       29.82F FOG
FOND DU LAC    RAIN      37  34  89 VRB3      29.81F FOG
SHEBOYGAN      RAIN      41  41 100 W8        29.82S FOG
WEST BEND      RAIN      43  43 100 W9        29.83R
JUNEAU         RAIN      36  36 100 CALM      29.85F
$$

LSZ147-162-202100-
LAKE SUPERIOR

STATION/POSITION TIME  TEMP    WIND        PRES    WAVE
                       AIR SEA DIR/SP/G            HT/PER
                 (UTC) (F)     (DEG/KT/KT) (MB)    (FT/S)
DEVILS ISLAND    1900   18     360/  6/  8 1013.5R
SAXON HARBOR     1940   21     300/ 11/ 14 1011.5R
$$

LMZ867-665-643>646-202100-
LAKE MICHIGAN

STATION/POSITION TIME  TEMP    WIND        PRES    WAVE
                       AIR SEA DIR/SP/G            HT/PER
                 (UTC) (F)     (DEG/KT/KT) (MB)    (FT/S)
NORTHPORT PIER   1940   32                 1008.8F
KEWAUNEE LAKESHO 1930   39     250/  6/  8 1009.1R
SHEBOYGAN LAKESH 1900   38     190/ 11/ 11 1009.5F
PORT WASHINGTON  1940   44     260/  4/  6 1010.8R
MILWAUKEE LAKESH 1930   50     220/ 10/ 11   N/A
KENOSHA   LAKESH 1900   52     320/  5/ 10 1009.8
$$

TC  - TEMPERATURE IN CELSIUS
VSB - VISIBILITY IN STATUTE MILES
WCI - WIND CHILL INDEX
HX  - HEAT INDEX




USA.gov is the U.S. government's official web portal to all federal, state and local government web resources and services.